DLH583 HECA-EDDF

Flight info

Callsign DLH583
Flight time 4h 0m
Altitude 38000
Route MENKU L617 NOZ L551 ANTAR DCT RIGRO DCT FSK UL608 DISOR DCT LONTA UL608 DOLEV DCT LURID DCT ZAG DCT BEDOX DCT SIMBA DCT AKINI T161 DEBHI DEBHI1B
Aircraft A20N/M-SDE2E3FGIJ1LORWXYZ/HB1

Departure

Time 2026-05-06 22:11
Airport Cairo International Airport (HECA)

Arrival

Time 2026-05-07 02:11
Airport Frankfurt Main Airport (EDDF)
Time Latitude Longitude Altitude Speed Heading
2026-05-06 21:41 30.10867 31.39645 374 ft 0 kts 253°
2026-05-06 21:59 30.10869 31.39650 374 ft 2 kts 252°
2026-05-06 21:59 30.10874 31.39669 382 ft 2 kts 250°
2026-05-06 22:00 30.10879 31.39687 370 ft 2 kts 247°
2026-05-06 22:00 30.10886 31.39704 374 ft 2 kts 244°
2026-05-06 22:00 30.10893 31.39721 374 ft 2 kts 237°
2026-05-06 22:00 30.10904 31.39736 374 ft 2 kts 211°
2026-05-06 22:01 30.10918 31.39739 374 ft 1 kts 163°
2026-05-06 22:01 30.10920 31.39738 374 ft 0 kts 162°
2026-05-06 22:04 30.10916 31.39739 374 ft 2 kts 162°
2026-05-06 22:04 30.10888 31.39749 388 ft 6 kts 165°
2026-05-06 22:04 30.10837 31.39763 374 ft 9 kts 163°
2026-05-06 22:04 30.10763 31.39788 374 ft 13 kts 164°
2026-05-06 22:05 30.10668 31.39817 374 ft 16 kts 165°
2026-05-06 22:05 30.10585 31.39839 374 ft 11 kts 167°
2026-05-06 22:05 30.10504 31.39861 374 ft 2 kts 166°
2026-05-06 22:05 30.10496 31.39865 374 ft 3 kts 160°
2026-05-06 22:06 30.10464 31.39874 374 ft 6 kts 172°
2026-05-06 22:06 30.10416 31.39857 374 ft 9 kts 217°
2026-05-06 22:06 30.10364 31.39799 374 ft 12 kts 226°
2026-05-06 22:06 30.10299 31.39714 374 ft 16 kts 230°
2026-05-06 22:07 30.10268 31.39672 374 ft 0 kts 229°
2026-05-06 22:07 30.10244 31.39641 374 ft 9 kts 229°
2026-05-06 22:07 30.10209 31.39596 374 ft 13 kts 223°
2026-05-06 22:07 30.10126 31.39603 374 ft 13 kts 137°
2026-05-06 22:08 30.10044 31.39673 374 ft 16 kts 138°
2026-05-06 22:08 30.10023 31.39698 374 ft 0 kts 126°
2026-05-06 22:09 30.10021 31.39705 374 ft 3 kts 120°
2026-05-06 22:10 30.10008 31.39764 374 ft 14 kts 95°
2026-05-06 22:10 30.10041 31.39918 374 ft 21 kts 62°
2026-05-06 22:10 30.10176 31.40104 374 ft 56 kts 47°
2026-05-06 22:10 30.10583 31.40639 374 ft 114 kts 49°
2026-05-06 22:11 30.11201 31.41458 375 ft 155 kts 49°
2026-05-06 22:11 30.11907 31.42417 861 ft 154 kts 47°
2026-05-06 22:11 30.12627 31.43372 1344 ft 164 kts 47°
2026-05-06 22:11 30.13423 31.44380 1796 ft 175 kts 46°
2026-05-06 22:12 30.14292 31.45435 2156 ft 190 kts 45°
2026-05-06 22:12 30.15411 31.46261 2722 ft 194 kts 17°
2026-05-06 22:12 30.16827 31.46330 3053 ft 221 kts 348°
2026-05-06 22:12 30.18255 31.45450 3530 ft 246 kts 322°
2026-05-06 22:13 30.19516 31.44040 4288 ft 257 kts 314°
2026-05-06 22:13 30.20723 31.42495 5303 ft 259 kts 312°
2026-05-06 22:13 30.21917 31.40929 6266 ft 263 kts 313°
2026-05-06 22:13 30.23156 31.39326 7135 ft 268 kts 313°
2026-05-06 22:14 30.24415 31.37725 8043 ft 271 kts 313°
2026-05-06 22:14 30.25707 31.36101 8933 ft 276 kts 313°
2026-05-06 22:14 30.27021 31.34456 9800 ft 281 kts 312°
2026-05-06 22:14 30.28363 31.32777 10502 ft 291 kts 312°
2026-05-06 22:15 30.29794 31.30985 10814 ft 314 kts 312°
2026-05-06 22:15 30.31318 31.29075 11180 ft 332 kts 312°
2026-05-06 22:15 30.32898 31.27096 11971 ft 334 kts 312°
2026-05-06 22:15 30.34447 31.25154 12771 ft 338 kts 311°
2026-05-06 22:16 30.36082 31.23103 13595 ft 341 kts 311°
2026-05-06 22:16 30.37741 31.21134 14325 ft 345 kts 316°
2026-05-06 22:16 30.39481 31.19266 14996 ft 348 kts 315°
2026-05-06 22:16 30.41244 31.17335 15689 ft 352 kts 315°
2026-05-06 22:17 30.43046 31.15371 16381 ft 355 kts 315°
2026-05-06 22:17 30.44841 31.13435 17039 ft 359 kts 315°
2026-05-06 22:17 30.46708 31.11435 17734 ft 363 kts 315°
2026-05-06 22:17 30.48561 31.09456 18381 ft 366 kts 315°
2026-05-06 22:18 30.50457 31.07432 18990 ft 369 kts 315°
2026-05-06 22:18 30.52349 31.05412 19589 ft 372 kts 315°
2026-05-06 22:18 30.54259 31.03370 20166 ft 375 kts 315°
2026-05-06 22:18 30.56191 31.01304 20764 ft 378 kts 315°
2026-05-06 22:19 30.58117 30.99243 21355 ft 381 kts 315°
2026-05-06 22:19 30.60084 30.97137 21906 ft 385 kts 315°
2026-05-06 22:19 30.62052 30.95027 22494 ft 388 kts 315°
2026-05-06 22:19 30.64052 30.92882 23026 ft 391 kts 315°
2026-05-06 22:20 30.66048 30.90740 23606 ft 394 kts 315°
2026-05-06 22:20 30.68068 30.88572 24072 ft 397 kts 315°
2026-05-06 22:20 30.70113 30.86375 24588 ft 399 kts 315°
2026-05-06 22:20 30.72151 30.84184 25030 ft 401 kts 315°
2026-05-06 22:21 30.74182 30.82001 25507 ft 404 kts 315°
2026-05-06 22:21 30.76277 30.79746 25962 ft 406 kts 315°
2026-05-06 22:21 30.78355 30.77510 26400 ft 409 kts 315°
2026-05-06 22:21 30.80439 30.75264 26826 ft 411 kts 315°
2026-05-06 22:22 30.82542 30.72997 27259 ft 413 kts 315°
2026-05-06 22:22 30.84658 30.70714 27678 ft 415 kts 315°
2026-05-06 22:22 30.86787 30.68417 28068 ft 418 kts 315°
2026-05-06 22:22 30.88919 30.66114 28453 ft 420 kts 315°
2026-05-06 22:23 30.91064 30.63796 28849 ft 421 kts 315°
2026-05-06 22:23 30.93203 30.61483 29202 ft 424 kts 315°
2026-05-06 22:23 30.95354 30.59155 29546 ft 426 kts 315°
2026-05-06 22:23 30.97564 30.56762 29887 ft 429 kts 315°
2026-05-06 22:24 30.99719 30.54427 30237 ft 430 kts 315°
2026-05-06 22:24 31.01945 30.52014 30542 ft 432 kts 315°
2026-05-06 22:24 31.04150 30.49623 30850 ft 434 kts 315°
2026-05-06 22:24 31.06362 30.47222 31156 ft 436 kts 315°
2026-05-06 22:25 31.08575 30.44818 31542 ft 435 kts 315°
2026-05-06 22:25 31.10787 30.42415 31966 ft 434 kts 315°
2026-05-06 22:25 31.12994 30.40015 32373 ft 432 kts 315°
2026-05-06 22:25 31.15184 30.37631 32774 ft 431 kts 315°
2026-05-06 22:26 31.17351 30.35271 33165 ft 430 kts 315°
2026-05-06 22:26 31.19563 30.32860 33575 ft 428 kts 315°
2026-05-06 22:26 31.21732 30.30494 33934 ft 427 kts 315°
2026-05-06 22:26 31.23902 30.28126 34272 ft 426 kts 315°
2026-05-06 22:27 31.26031 30.25801 34561 ft 425 kts 315°
2026-05-06 22:27 31.28197 30.23434 34839 ft 425 kts 314°
2026-05-06 22:27 31.30346 30.21084 35088 ft 425 kts 314°
2026-05-06 22:27 31.32511 30.18714 35336 ft 424 kts 314°
2026-05-06 22:28 31.34653 30.16369 35588 ft 424 kts 314°
2026-05-06 22:28 31.36810 30.14006 35833 ft 424 kts 314°
2026-05-06 22:28 31.38985 30.11621 36066 ft 423 kts 314°
2026-05-06 22:28 31.41082 30.09321 36288 ft 423 kts 314°
2026-05-06 22:29 31.43279 30.06909 36519 ft 423 kts 314°
2026-05-06 22:29 31.45408 30.04571 36736 ft 423 kts 314°
2026-05-06 22:29 31.47548 30.02218 36940 ft 423 kts 314°
2026-05-06 22:29 31.49691 29.99861 37140 ft 422 kts 314°
2026-05-06 22:30 31.51823 29.97514 37334 ft 422 kts 314°
2026-05-06 22:30 31.53976 29.95143 37530 ft 422 kts 314°
2026-05-06 22:30 31.56103 29.92800 37716 ft 422 kts 314°
2026-05-06 22:30 31.58242 29.90441 37887 ft 422 kts 314°
2026-05-06 22:31 31.60389 29.88071 38060 ft 422 kts 313°
2026-05-06 22:31 31.62525 29.85713 38107 ft 422 kts 313°
2026-05-06 22:31 31.66783 29.81006 38105 ft 420 kts 313°
2026-05-06 22:32 31.71045 29.76288 38107 ft 420 kts 313°
2026-05-06 22:32 31.75287 29.71586 38107 ft 420 kts 313°
2026-05-06 22:33 31.79547 29.66859 38102 ft 420 kts 313°
2026-05-06 22:33 31.83783 29.62152 38108 ft 419 kts 313°
2026-05-06 22:34 31.88010 29.57448 38112 ft 419 kts 313°
2026-05-06 22:34 31.92241 29.52733 38114 ft 419 kts 313°
2026-05-06 22:35 31.96480 29.48005 38113 ft 419 kts 313°
2026-05-06 22:35 32.00963 29.43619 38117 ft 422 kts 322°
2026-05-06 22:36 32.06042 29.40106 38115 ft 425 kts 328°
2026-05-06 22:36 32.11251 29.36782 38118 ft 425 kts 327°
2026-05-06 22:37 32.16450 29.33454 38118 ft 425 kts 327°
2026-05-06 22:37 32.21608 29.30156 38124 ft 425 kts 328°
2026-05-06 22:38 32.26840 29.26804 38119 ft 424 kts 328°
2026-05-06 22:38 32.32012 29.23487 38120 ft 424 kts 328°
2026-05-06 22:39 32.37176 29.20171 38127 ft 424 kts 327°
2026-05-06 22:39 32.42361 29.16838 38121 ft 424 kts 327°
2026-05-06 22:40 32.47579 29.13478 38127 ft 424 kts 327°
2026-05-06 22:40 32.52707 29.10172 38126 ft 423 kts 327°
2026-05-06 22:41 32.60469 29.05160 38123 ft 422 kts 327°
2026-05-06 22:42 32.65617 29.01830 38124 ft 422 kts 327°
2026-05-06 22:42 32.70766 28.98486 38110 ft 424 kts 329°
2026-05-06 22:43 32.75986 28.95099 38110 ft 427 kts 329°
2026-05-06 22:43 32.81185 28.91725 38117 ft 426 kts 329°
2026-05-06 22:44 32.86401 28.88333 38113 ft 426 kts 329°
2026-05-06 22:44 32.91596 28.84950 38113 ft 426 kts 329°
2026-05-06 22:45 32.96789 28.81564 38113 ft 426 kts 328°
2026-05-06 22:45 33.01963 28.78185 38109 ft 425 kts 328°
2026-05-06 22:46 33.07162 28.74786 38109 ft 425 kts 328°
2026-05-06 22:46 33.12341 28.71395 38106 ft 425 kts 328°
2026-05-06 22:47 33.17516 28.68003 38109 ft 424 kts 328°
2026-05-06 22:47 33.22687 28.64609 38104 ft 424 kts 328°
2026-05-06 22:48 33.27871 28.61202 38106 ft 424 kts 328°
2026-05-06 22:48 33.33043 28.57797 38106 ft 424 kts 328°
2026-05-06 22:49 33.38198 28.54400 38107 ft 424 kts 328°
2026-05-06 22:49 33.43379 28.50980 38109 ft 424 kts 328°
2026-05-06 22:50 33.48547 28.47564 38114 ft 424 kts 328°
2026-05-06 22:50 33.53706 28.44149 38114 ft 424 kts 328°
2026-05-06 22:51 33.58883 28.40718 38117 ft 425 kts 328°
2026-05-06 22:51 33.64058 28.37284 38116 ft 425 kts 328°
2026-05-06 22:52 33.69226 28.33850 38120 ft 425 kts 328°
2026-05-06 22:52 33.74391 28.30412 38121 ft 424 kts 328°
2026-05-06 22:53 33.78686 28.27550 38119 ft 424 kts 328°
2026-05-06 22:53 33.83902 28.24220 38117 ft 425 kts 331°
2026-05-06 22:54 33.89215 28.21103 38114 ft 425 kts 331°
2026-05-06 22:54 33.94514 28.17958 38116 ft 425 kts 331°
2026-05-06 22:55 33.99805 28.14784 38118 ft 424 kts 330°
2026-05-06 22:55 34.05071 28.11613 38114 ft 424 kts 330°
2026-05-06 22:56 34.10270 28.08477 38112 ft 423 kts 330°
2026-05-06 22:56 34.15532 28.05299 38110 ft 423 kts 330°
2026-05-06 22:57 34.20791 28.02118 38114 ft 422 kts 330°
2026-05-06 22:57 34.26020 27.98950 38113 ft 422 kts 330°
2026-05-06 22:58 34.31263 27.95767 38108 ft 422 kts 330°
2026-05-06 22:58 34.36499 27.92593 38108 ft 421 kts 330°
2026-05-06 22:59 34.41731 27.89414 38105 ft 421 kts 330°
2026-05-06 22:59 34.46979 27.86217 38103 ft 421 kts 330°
2026-05-06 23:00 34.52205 27.83029 38106 ft 421 kts 330°
2026-05-06 23:00 34.57428 27.79838 38107 ft 421 kts 330°
2026-05-06 23:01 34.62662 27.76636 38106 ft 421 kts 330°
2026-05-06 23:01 34.67882 27.73436 38110 ft 420 kts 330°
2026-05-06 23:02 34.73112 27.70228 38109 ft 421 kts 330°
2026-05-06 23:02 34.77930 27.67269 38112 ft 421 kts 330°
2026-05-06 23:03 34.83163 27.64051 38114 ft 420 kts 330°
2026-05-06 23:03 34.88383 27.60836 38117 ft 420 kts 330°
2026-05-06 23:04 34.93591 27.57623 38114 ft 420 kts 330°
2026-05-06 23:04 34.98816 27.54394 38119 ft 420 kts 330°
2026-05-06 23:05 35.04011 27.51180 38113 ft 420 kts 330°
2026-05-06 23:05 35.09229 27.47947 38114 ft 419 kts 330°
2026-05-06 23:06 35.14381 27.44751 38114 ft 419 kts 330°
2026-05-06 23:06 35.19586 27.41517 38112 ft 419 kts 330°
2026-05-06 23:07 35.24774 27.38288 38111 ft 418 kts 330°
2026-05-06 23:07 35.29955 27.35060 38109 ft 418 kts 330°
2026-05-06 23:08 35.35134 27.31829 38104 ft 418 kts 330°
2026-05-06 23:08 35.40299 27.28601 38107 ft 417 kts 330°
2026-05-06 23:09 35.45477 27.25360 38114 ft 417 kts 330°
2026-05-06 23:09 35.50646 27.22121 38118 ft 417 kts 330°
2026-05-06 23:10 35.55802 27.18884 38104 ft 417 kts 330°
2026-05-06 23:10 35.60972 27.15635 38103 ft 417 kts 330°
2026-05-06 23:11 35.66137 27.12383 38104 ft 417 kts 330°
2026-05-06 23:11 35.71309 27.09123 38120 ft 417 kts 330°
2026-05-06 23:12 35.76483 27.05857 38128 ft 417 kts 330°
2026-05-06 23:12 35.81646 27.02593 38121 ft 418 kts 330°
2026-05-06 23:13 35.86824 26.99315 38111 ft 418 kts 330°
2026-05-06 23:13 35.91989 26.96039 38116 ft 418 kts 330°
2026-05-06 23:14 35.97146 26.92764 38131 ft 417 kts 330°
2026-05-06 23:14 36.02311 26.89479 38131 ft 417 kts 330°
2026-05-06 23:15 36.07450 26.86206 38122 ft 417 kts 330°
2026-05-06 23:15 36.12637 26.82897 38113 ft 417 kts 330°
2026-05-06 23:16 36.17791 26.79604 38118 ft 417 kts 330°
2026-05-06 23:16 36.22940 26.76310 38117 ft 416 kts 330°
2026-05-06 23:17 36.28085 26.73014 38110 ft 416 kts 330°
2026-05-06 23:17 36.33187 26.69740 38111 ft 416 kts 330°
2026-05-06 23:18 36.38315 26.66445 38110 ft 415 kts 330°
2026-05-06 23:18 36.43437 26.63148 38101 ft 415 kts 330°
2026-05-06 23:19 36.48590 26.59826 38111 ft 415 kts 330°
2026-05-06 23:19 36.53739 26.56502 38104 ft 415 kts 330°
2026-05-06 23:20 36.58865 26.53184 38108 ft 416 kts 330°
2026-05-06 23:20 36.63964 26.49885 38110 ft 416 kts 330°
2026-05-06 23:21 36.69134 26.46534 38104 ft 416 kts 330°
2026-05-06 23:21 36.74228 26.43226 38107 ft 416 kts 330°
2026-05-06 23:22 36.79387 26.39870 38097 ft 416 kts 330°
2026-05-06 23:22 36.84481 26.36552 38099 ft 415 kts 330°
2026-05-06 23:23 36.89634 26.33190 38108 ft 415 kts 330°
2026-05-06 23:23 36.94718 26.29868 38102 ft 415 kts 330°
2026-05-06 23:24 36.99835 26.26519 38095 ft 415 kts 330°
2026-05-06 23:24 37.04952 26.23165 38100 ft 415 kts 330°
2026-05-06 23:25 37.10063 26.19810 38100 ft 415 kts 330°
2026-05-06 23:25 37.15137 26.16474 38103 ft 415 kts 330°
2026-05-06 23:26 37.20292 26.13079 38104 ft 415 kts 330°
2026-05-06 23:26 37.25396 26.09714 38102 ft 415 kts 330°
2026-05-06 23:27 37.30521 26.06328 38103 ft 415 kts 330°
2026-05-06 23:27 37.35485 26.03045 38106 ft 415 kts 330°
2026-05-06 23:28 37.40598 25.99658 38100 ft 415 kts 330°
2026-05-06 23:28 37.45707 25.96268 38101 ft 415 kts 330°
2026-05-06 23:29 37.50814 25.92876 38100 ft 415 kts 330°
2026-05-06 23:29 37.55889 25.89501 38094 ft 415 kts 330°
2026-05-06 23:30 37.60963 25.85890 38100 ft 415 kts 326°
2026-05-06 23:30 37.65872 25.82060 38091 ft 415 kts 327°
2026-05-06 23:31 37.70795 25.78260 38091 ft 415 kts 327°
2026-05-06 23:31 37.75700 25.74456 38086 ft 415 kts 327°
2026-05-06 23:32 37.80624 25.70623 38090 ft 415 kts 327°
2026-05-06 23:32 37.85537 25.66792 38085 ft 415 kts 327°
2026-05-06 23:33 37.90480 25.62929 38091 ft 415 kts 327°
2026-05-06 23:33 37.95371 25.59102 38087 ft 415 kts 327°
2026-05-06 23:34 38.00286 25.55249 38087 ft 415 kts 327°
2026-05-06 23:34 38.05202 25.51389 38084 ft 415 kts 327°
2026-05-06 23:35 38.10117 25.47524 38082 ft 415 kts 327°
2026-05-06 23:35 38.15011 25.43670 38083 ft 415 kts 327°
2026-05-06 23:36 38.19930 25.39789 38086 ft 415 kts 327°
2026-05-06 23:36 38.24847 25.35904 38083 ft 415 kts 327°
2026-05-06 23:37 38.29747 25.32026 38082 ft 415 kts 327°
2026-05-06 23:37 38.34656 25.28134 38079 ft 415 kts 327°
2026-05-06 23:38 38.39562 25.24239 38077 ft 415 kts 327°
2026-05-06 23:38 38.43633 25.21002 38078 ft 415 kts 327°
2026-05-06 23:39 38.48517 25.17112 38076 ft 415 kts 327°
2026-05-06 23:39 38.53456 25.13173 38073 ft 415 kts 327°
2026-05-06 23:40 38.58350 25.09262 38068 ft 414 kts 327°
2026-05-06 23:40 38.63230 25.05357 38067 ft 414 kts 327°
2026-05-06 23:41 38.68122 25.01436 38060 ft 414 kts 327°
2026-05-06 23:41 38.72993 24.97525 38062 ft 414 kts 327°
2026-05-06 23:42 38.77847 24.93621 38064 ft 414 kts 327°
2026-05-06 23:42 38.82722 24.89695 38058 ft 414 kts 327°
2026-05-06 23:43 38.87597 24.85762 38057 ft 414 kts 327°
2026-05-06 23:43 38.92448 24.81841 38064 ft 413 kts 327°
2026-05-06 23:44 38.97329 24.77890 38056 ft 413 kts 327°
2026-05-06 23:44 39.02185 24.73953 38055 ft 413 kts 327°
2026-05-06 23:45 39.07045 24.70005 38055 ft 413 kts 327°
2026-05-06 23:45 39.11904 24.66053 38053 ft 413 kts 327°
2026-05-06 23:46 39.16758 24.62097 38051 ft 413 kts 327°
2026-05-06 23:46 39.21604 24.58143 38050 ft 413 kts 327°
2026-05-06 23:47 39.26439 24.54189 38045 ft 412 kts 327°
2026-05-06 23:47 39.31299 24.50210 38050 ft 412 kts 327°
2026-05-06 23:48 39.36168 24.46216 38048 ft 412 kts 327°
2026-05-06 23:48 39.41004 24.42242 38050 ft 412 kts 327°
2026-05-06 23:49 39.45824 24.38276 38055 ft 412 kts 327°
2026-05-06 23:49 39.50662 24.34287 38052 ft 411 kts 327°
2026-05-06 23:50 39.55489 24.30302 38057 ft 411 kts 327°
2026-05-06 23:50 39.62678 24.24354 38055 ft 411 kts 327°
2026-05-06 23:51 39.67530 24.20330 38053 ft 411 kts 327°
2026-05-06 23:51 39.72337 24.16338 38058 ft 410 kts 327°
2026-05-06 23:52 39.77150 24.12333 38056 ft 410 kts 327°
2026-05-06 23:52 39.81922 24.08357 38055 ft 410 kts 327°
2026-05-06 23:53 39.86721 24.04350 38043 ft 410 kts 326°
2026-05-06 23:53 39.91515 24.00341 38048 ft 410 kts 326°
2026-05-06 23:54 39.96339 23.96301 38065 ft 410 kts 326°
2026-05-06 23:54 40.01140 23.92275 38068 ft 410 kts 326°
2026-05-06 23:55 40.05931 23.88249 38049 ft 410 kts 326°
2026-05-06 23:55 40.10717 23.84219 38053 ft 409 kts 326°
2026-05-06 23:56 40.15518 23.80170 38071 ft 408 kts 326°
2026-05-06 23:56 40.20297 23.76133 38060 ft 408 kts 326°
2026-05-06 23:57 40.25030 23.72128 38062 ft 408 kts 326°
2026-05-06 23:57 40.29814 23.68073 38062 ft 407 kts 326°
2026-05-06 23:58 40.34536 23.64064 38068 ft 406 kts 326°
2026-05-06 23:58 40.39306 23.60006 38071 ft 406 kts 326°
2026-05-06 23:59 40.44035 23.55978 38059 ft 405 kts 326°
2026-05-06 23:59 40.48757 23.51947 38063 ft 405 kts 326°
2026-05-07 00:00 40.53512 23.47882 38065 ft 405 kts 326°
2026-05-07 00:00 40.57436 23.44523 38074 ft 405 kts 326°
2026-05-07 00:01 40.62955 23.39789 38067 ft 405 kts 326°
2026-05-07 00:01 40.67668 23.35739 38070 ft 405 kts 326°
2026-05-07 00:02 40.72395 23.31670 38070 ft 405 kts 326°
2026-05-07 00:02 40.77121 23.27594 38075 ft 406 kts 326°
2026-05-07 00:03 40.81846 23.23513 38081 ft 406 kts 326°
2026-05-07 00:03 40.86575 23.19422 38077 ft 407 kts 326°
2026-05-07 00:04 40.91318 23.15311 38083 ft 407 kts 326°
2026-05-07 00:04 40.96062 23.11192 38083 ft 408 kts 326°
2026-05-07 00:05 41.00810 23.07059 38088 ft 409 kts 325°
2026-05-07 00:05 41.05565 23.02909 38077 ft 409 kts 324°
2026-05-07 00:06 41.10010 22.98237 38084 ft 408 kts 316°
2026-05-07 00:06 41.13916 22.92771 38077 ft 408 kts 309°
2026-05-07 00:07 41.17584 22.87022 38078 ft 408 kts 310°
2026-05-07 00:07 41.21260 22.81279 38084 ft 409 kts 310°
2026-05-07 00:08 41.24935 22.75502 38082 ft 409 kts 310°
2026-05-07 00:08 41.28733 22.69873 38084 ft 409 kts 312°
2026-05-07 00:09 41.32593 22.64312 38085 ft 409 kts 312°
2026-05-07 00:09 41.36427 22.58722 38093 ft 409 kts 311°
2026-05-07 00:10 41.40225 22.53149 38091 ft 409 kts 311°
2026-05-07 00:10 41.44045 22.47530 38086 ft 409 kts 311°
2026-05-07 00:11 41.47856 22.41913 38077 ft 409 kts 311°
2026-05-07 00:11 41.51664 22.36292 38079 ft 408 kts 311°
2026-05-07 00:12 41.55497 22.30622 38070 ft 408 kts 311°
2026-05-07 00:12 41.59296 22.24992 38071 ft 409 kts 311°
2026-05-07 00:13 41.63078 22.19375 38068 ft 409 kts 311°
2026-05-07 00:13 41.66879 22.13722 38060 ft 409 kts 311°
2026-05-07 00:14 41.70676 22.08061 38055 ft 409 kts 311°
2026-05-07 00:14 41.74469 22.02398 38055 ft 409 kts 311°
2026-05-07 00:15 41.78267 21.96716 38050 ft 409 kts 311°
2026-05-07 00:15 41.82063 21.91025 38050 ft 409 kts 310°
2026-05-07 00:16 41.85242 21.86250 38046 ft 410 kts 310°
2026-05-07 00:16 41.89012 21.80579 38042 ft 410 kts 310°
2026-05-07 00:17 41.92809 21.74856 38046 ft 411 kts 310°
2026-05-07 00:17 41.96608 21.69119 38049 ft 411 kts 310°
2026-05-07 00:18 42.00412 21.63362 38056 ft 412 kts 310°
2026-05-07 00:18 42.04215 21.57596 38054 ft 412 kts 310°
2026-05-07 00:19 42.08022 21.51813 38054 ft 412 kts 310°
2026-05-07 00:19 42.11810 21.46047 38068 ft 411 kts 310°
2026-05-07 00:20 42.15599 21.40269 38074 ft 411 kts 310°
2026-05-07 00:20 42.19334 21.34434 38070 ft 411 kts 308°
2026-05-07 00:21 42.23027 21.28541 38075 ft 411 kts 308°
2026-05-07 00:21 42.26727 21.22648 38082 ft 411 kts 308°
2026-05-07 00:22 42.30427 21.16758 38078 ft 411 kts 308°
2026-05-07 00:22 42.34123 21.10866 38073 ft 411 kts 308°
2026-05-07 00:23 42.37817 21.04965 38073 ft 410 kts 308°
2026-05-07 00:23 42.41492 20.99081 38064 ft 410 kts 308°
2026-05-07 00:24 42.45169 20.93182 38059 ft 410 kts 308°
2026-05-07 00:24 42.48850 20.87264 38064 ft 411 kts 308°
2026-05-07 00:25 42.52529 20.81338 38066 ft 411 kts 308°
2026-05-07 00:25 42.56212 20.75395 38069 ft 412 kts 307°
2026-05-07 00:26 42.59902 20.69428 38069 ft 413 kts 307°
2026-05-07 00:26 42.63593 20.63446 38073 ft 414 kts 307°
2026-05-07 00:27 42.67285 20.57451 38073 ft 414 kts 307°
2026-05-07 00:27 42.70984 20.51433 38081 ft 415 kts 307°
2026-05-07 00:28 42.74684 20.45401 38087 ft 415 kts 307°
2026-05-07 00:28 42.78356 20.39403 38084 ft 415 kts 307°
2026-05-07 00:29 42.82048 20.33362 38077 ft 414 kts 308°
2026-05-07 00:30 42.90508 20.22619 38080 ft 416 kts 315°
2026-05-07 00:30 42.94847 20.17384 38077 ft 416 kts 315°
2026-05-07 00:31 42.99181 20.12160 38078 ft 416 kts 315°
2026-05-07 00:31 43.03518 20.06919 38081 ft 416 kts 315°
2026-05-07 00:32 43.07857 20.01667 38084 ft 417 kts 315°
2026-05-07 00:32 43.12209 19.96387 38086 ft 418 kts 314°
2026-05-07 00:33 43.16545 19.91116 38073 ft 415 kts 314°
2026-05-07 00:33 43.20862 19.85858 38068 ft 416 kts 314°
2026-05-07 00:34 43.25215 19.80546 38069 ft 416 kts 314°
2026-05-07 00:34 43.29530 19.75269 38079 ft 416 kts 314°
2026-05-07 00:35 43.33819 19.70015 38064 ft 415 kts 314°
2026-05-07 00:35 43.38137 19.64714 38059 ft 415 kts 314°
2026-05-07 00:36 43.42421 19.59446 38042 ft 413 kts 314°
2026-05-07 00:36 43.46712 19.54155 38062 ft 417 kts 314°
2026-05-07 00:37 43.51039 19.48811 38053 ft 417 kts 314°
2026-05-07 00:37 43.55354 19.43473 38068 ft 418 kts 314°
2026-05-07 00:38 43.59679 19.38110 38053 ft 418 kts 313°
2026-05-07 00:38 43.63996 19.32740 38051 ft 418 kts 313°
2026-05-07 00:39 43.68317 19.27362 38052 ft 419 kts 313°
2026-05-07 00:39 43.72655 19.21953 38045 ft 419 kts 313°
2026-05-07 00:40 43.76975 19.16553 38043 ft 420 kts 313°
2026-05-07 00:40 43.81306 19.11128 38038 ft 420 kts 313°
2026-05-07 00:41 43.85621 19.05713 38038 ft 420 kts 313°
2026-05-07 00:41 43.89948 19.00270 38034 ft 420 kts 313°
2026-05-07 00:42 43.94270 18.94822 38025 ft 420 kts 313°
2026-05-07 00:42 43.98589 18.89368 38017 ft 419 kts 313°
2026-05-07 00:43 44.02901 18.83912 38004 ft 419 kts 313°
2026-05-07 00:43 44.07203 18.78456 38007 ft 419 kts 313°
2026-05-07 00:44 44.11506 18.72987 38005 ft 420 kts 313°
2026-05-07 00:44 44.15820 18.67494 38006 ft 421 kts 313°
2026-05-07 00:45 44.20138 18.61983 38009 ft 422 kts 312°
2026-05-07 00:45 44.24492 18.56416 38008 ft 423 kts 312°
2026-05-07 00:46 44.28823 18.50866 38003 ft 423 kts 312°
2026-05-07 00:46 44.33157 18.45300 38007 ft 424 kts 312°
2026-05-07 00:47 44.37474 18.39747 37996 ft 422 kts 312°
2026-05-07 00:47 44.41800 18.34168 37995 ft 422 kts 312°
2026-05-07 00:48 44.46106 18.28605 37991 ft 423 kts 312°
2026-05-07 00:48 44.50439 18.22995 37989 ft 423 kts 312°
2026-05-07 00:49 44.54752 18.17397 37986 ft 424 kts 312°
2026-05-07 00:49 44.59080 18.11769 37983 ft 425 kts 311°
2026-05-07 00:50 44.63390 18.06153 37980 ft 426 kts 311°
2026-05-07 00:50 44.67759 18.00447 37983 ft 427 kts 311°
2026-05-07 00:51 44.72105 17.94760 37981 ft 428 kts 311°
2026-05-07 00:51 44.76461 17.89046 37982 ft 428 kts 311°
2026-05-07 00:52 44.80812 17.83327 37983 ft 429 kts 311°
2026-05-07 00:52 44.85177 17.77577 37969 ft 429 kts 311°
2026-05-07 00:53 44.89526 17.71834 37977 ft 429 kts 311°
2026-05-07 00:53 44.93885 17.66066 37964 ft 429 kts 311°
2026-05-07 00:54 44.98240 17.60292 37964 ft 430 kts 311°
2026-05-07 00:54 45.02599 17.54499 37967 ft 430 kts 311°
2026-05-07 00:55 45.06954 17.48702 37970 ft 430 kts 311°
2026-05-07 00:55 45.11312 17.42893 37969 ft 430 kts 311°
2026-05-07 00:56 45.15575 17.36974 37964 ft 429 kts 309°
2026-05-07 00:56 45.19811 17.31011 37960 ft 430 kts 310°
2026-05-07 00:57 45.24057 17.25044 37961 ft 430 kts 310°
2026-05-07 00:57 45.28288 17.19057 37952 ft 430 kts 309°
2026-05-07 00:58 45.31865 17.13977 37955 ft 430 kts 309°
2026-05-07 00:58 45.36090 17.07962 37953 ft 430 kts 309°
2026-05-07 00:59 45.42401 16.98962 37953 ft 431 kts 309°
2026-05-07 01:00 45.46632 16.92908 37953 ft 431 kts 309°
2026-05-07 01:00 45.50862 16.86839 37955 ft 431 kts 309°
2026-05-07 01:01 45.55119 16.80718 37958 ft 432 kts 309°
2026-05-07 01:01 45.59349 16.74622 37958 ft 433 kts 309°
2026-05-07 01:02 45.63585 16.68504 37968 ft 433 kts 309°
2026-05-07 01:02 45.67821 16.62371 37970 ft 434 kts 309°
2026-05-07 01:03 45.72053 16.56232 37969 ft 434 kts 309°
2026-05-07 01:03 45.76292 16.50067 37971 ft 434 kts 309°
2026-05-07 01:04 45.80523 16.43901 37959 ft 434 kts 309°
2026-05-07 01:04 45.84752 16.37722 37965 ft 434 kts 309°
2026-05-07 01:05 45.88979 16.31532 37968 ft 435 kts 309°
2026-05-07 01:05 45.93473 16.25631 37963 ft 438 kts 313°
2026-05-07 01:06 45.98021 16.19786 37963 ft 439 kts 313°
2026-05-07 01:06 46.02566 16.13916 37959 ft 440 kts 312°
2026-05-07 01:07 46.07119 16.08022 37957 ft 440 kts 312°
2026-05-07 01:07 46.11665 16.02121 37950 ft 441 kts 312°
2026-05-07 01:08 46.16227 15.96187 37947 ft 441 kts 312°
2026-05-07 01:08 46.20786 15.90244 37949 ft 442 kts 312°
2026-05-07 01:09 46.25354 15.84276 37938 ft 442 kts 312°
2026-05-07 01:09 46.29874 15.78261 37934 ft 441 kts 311°
2026-05-07 01:10 46.34321 15.72167 37920 ft 440 kts 310°
2026-05-07 01:10 46.38770 15.66068 37918 ft 440 kts 310°
2026-05-07 01:11 46.43218 15.59992 37916 ft 440 kts 310°
2026-05-07 01:11 46.47674 15.53902 37918 ft 440 kts 310°
2026-05-07 01:12 46.52127 15.47797 37925 ft 441 kts 310°
2026-05-07 01:12 46.56608 15.41637 37924 ft 439 kts 309°
2026-05-07 01:13 46.61017 15.35563 37932 ft 440 kts 309°
2026-05-07 01:13 46.65489 15.29378 37915 ft 442 kts 309°
2026-05-07 01:14 46.69947 15.23201 37916 ft 443 kts 309°
2026-05-07 01:14 46.74412 15.17000 37918 ft 444 kts 309°
2026-05-07 01:15 46.78896 15.10756 37925 ft 447 kts 309°
2026-05-07 01:15 46.83394 15.04480 37928 ft 447 kts 309°
2026-05-07 01:16 46.87830 14.98277 37930 ft 447 kts 309°
2026-05-07 01:16 46.92354 14.91928 37926 ft 450 kts 309°
2026-05-07 01:17 46.96896 14.85543 37924 ft 451 kts 309°
2026-05-07 01:17 47.01428 14.79157 37919 ft 453 kts 310°
2026-05-07 01:18 47.05940 14.72783 37922 ft 454 kts 310°
2026-05-07 01:18 47.10487 14.66342 37928 ft 455 kts 310°
2026-05-07 01:19 47.15061 14.59847 37915 ft 453 kts 309°
2026-05-07 01:19 47.19533 14.53468 37926 ft 452 kts 310°
2026-05-07 01:20 47.24047 14.47027 37918 ft 453 kts 310°
2026-05-07 01:20 47.28563 14.40570 37931 ft 453 kts 310°
2026-05-07 01:21 47.33076 14.34100 37939 ft 453 kts 310°
2026-05-07 01:21 47.37622 14.27564 37941 ft 452 kts 310°
2026-05-07 01:22 47.42113 14.21098 37946 ft 451 kts 310°
2026-05-07 01:22 47.46601 14.14610 37939 ft 451 kts 310°
2026-05-07 01:23 47.51081 14.08123 37939 ft 451 kts 310°
2026-05-07 01:23 47.55555 14.01624 37946 ft 451 kts 310°
2026-05-07 01:24 47.60028 13.95111 37955 ft 452 kts 310°
2026-05-07 01:24 47.64482 13.88609 37959 ft 452 kts 310°
2026-05-07 01:25 47.68977 13.82033 37938 ft 450 kts 310°
2026-05-07 01:25 47.73438 13.75487 37946 ft 450 kts 310°
2026-05-07 01:26 47.77909 13.68908 37952 ft 450 kts 310°
2026-05-07 01:26 47.82360 13.62341 37950 ft 451 kts 310°
2026-05-07 01:27 47.86847 13.55707 37946 ft 452 kts 310°
2026-05-07 01:27 47.91309 13.49098 37943 ft 453 kts 310°
2026-05-07 01:28 47.95776 13.42462 37926 ft 454 kts 310°
2026-05-07 01:28 48.00247 13.35800 37936 ft 454 kts 310°
2026-05-07 01:29 48.04726 13.29107 37937 ft 456 kts 310°
2026-05-07 01:29 48.09209 13.22393 37933 ft 457 kts 310°
2026-05-07 01:30 48.13702 13.15644 37931 ft 458 kts 310°
2026-05-07 01:30 48.18209 13.08861 37933 ft 459 kts 309°
2026-05-07 01:31 48.21956 13.03213 37935 ft 460 kts 309°
2026-05-07 01:31 48.26214 12.96115 37937 ft 458 kts 306°
2026-05-07 01:32 48.30463 12.88962 37931 ft 460 kts 306°
2026-05-07 01:32 48.34717 12.81775 37931 ft 460 kts 306°
2026-05-07 01:33 48.38961 12.74557 37933 ft 461 kts 306°
2026-05-07 01:33 48.43229 12.67271 37937 ft 461 kts 306°
2026-05-07 01:34 48.47473 12.60004 37938 ft 461 kts 306°
2026-05-07 01:34 48.51705 12.52740 37929 ft 462 kts 306°
2026-05-07 01:35 48.55938 12.45449 37923 ft 462 kts 306°
2026-05-07 01:35 48.60166 12.38148 37922 ft 462 kts 306°
2026-05-07 01:36 48.64418 12.30792 37922 ft 461 kts 306°
2026-05-07 01:36 48.68629 12.23485 37913 ft 461 kts 306°
2026-05-07 01:37 48.72631 12.15999 37915 ft 453 kts 296°
2026-05-07 01:37 48.75265 12.07483 37909 ft 441 kts 281°
2026-05-07 01:38 48.76462 11.98501 37906 ft 434 kts 274°
2026-05-07 01:38 48.77444 11.89471 37903 ft 434 kts 274°
2026-05-07 01:39 48.78417 11.80455 37903 ft 433 kts 274°
2026-05-07 01:39 48.79374 11.71443 37902 ft 433 kts 274°
2026-05-07 01:40 48.80322 11.62426 37902 ft 433 kts 274°
2026-05-07 01:40 48.81263 11.53363 37898 ft 433 kts 274°
2026-05-07 01:41 48.82193 11.44326 37898 ft 433 kts 274°
2026-05-07 01:41 48.83117 11.35286 37900 ft 433 kts 274°
2026-05-07 01:42 48.84411 11.26319 37899 ft 442 kts 285°
2026-05-07 01:42 48.87483 11.18141 37897 ft 455 kts 304°
2026-05-07 01:43 48.92104 11.11304 37922 ft 466 kts 313°
2026-05-07 01:43 48.96884 11.04656 37915 ft 463 kts 313°
2026-05-07 01:44 49.01617 10.98022 37919 ft 463 kts 313°
2026-05-07 01:44 49.06359 10.91352 37844 ft 461 kts 313°
2026-05-07 01:44 49.08702 10.88053 37449 ft 459 kts 313°
2026-05-07 01:45 49.11077 10.84766 36807 ft 461 kts 316°
2026-05-07 01:45 49.13581 10.81684 36110 ft 462 kts 316°
2026-05-07 01:45 49.16065 10.78558 35378 ft 463 kts 316°
2026-05-07 01:45 49.18559 10.75426 34680 ft 464 kts 317°
2026-05-07 01:46 49.21060 10.72313 33989 ft 465 kts 317°
2026-05-07 01:46 49.23583 10.69196 33235 ft 465 kts 318°
2026-05-07 01:46 49.26091 10.66107 32581 ft 462 kts 318°
2026-05-07 01:46 49.28591 10.63028 31903 ft 459 kts 318°
2026-05-07 01:47 49.31076 10.59963 31225 ft 457 kts 318°
2026-05-07 01:47 49.33541 10.56919 30562 ft 454 kts 318°
2026-05-07 01:47 49.35988 10.53892 29960 ft 450 kts 318°
2026-05-07 01:47 49.38408 10.50896 29298 ft 444 kts 318°
2026-05-07 01:48 49.40792 10.47939 28589 ft 440 kts 318°
2026-05-07 01:48 49.43176 10.44977 27917 ft 436 kts 318°
2026-05-07 01:48 49.45518 10.42063 27255 ft 432 kts 318°
2026-05-07 01:48 49.47843 10.39166 26622 ft 428 kts 318°
2026-05-07 01:49 49.50177 10.36253 25996 ft 424 kts 318°
2026-05-07 01:49 49.52429 10.33440 25400 ft 420 kts 318°
2026-05-07 01:49 49.54714 10.30580 24806 ft 416 kts 319°
2026-05-07 01:49 49.56951 10.27779 24247 ft 412 kts 319°
2026-05-07 01:50 49.59165 10.25001 23683 ft 408 kts 319°
2026-05-07 01:50 49.61352 10.22237 23073 ft 405 kts 319°
2026-05-07 01:50 49.63512 10.19503 22445 ft 400 kts 319°
2026-05-07 01:50 49.65656 10.16796 21813 ft 396 kts 319°
2026-05-07 01:51 49.67788 10.14121 21218 ft 393 kts 319°
2026-05-07 01:51 49.69899 10.11476 20618 ft 389 kts 320°
2026-05-07 01:51 49.71998 10.08840 20021 ft 386 kts 319°
2026-05-07 01:51 49.74070 10.06230 19433 ft 383 kts 319°
2026-05-07 01:52 49.76127 10.03633 18853 ft 381 kts 319°
2026-05-07 01:52 49.78172 10.01047 18283 ft 378 kts 319°
2026-05-07 01:52 49.80201 9.98477 17674 ft 375 kts 319°
2026-05-07 01:52 49.82213 9.95926 17084 ft 371 kts 319°
2026-05-07 01:53 49.84205 9.93397 16494 ft 368 kts 319°
2026-05-07 01:53 49.86174 9.90897 15914 ft 366 kts 319°
2026-05-07 01:53 49.88132 9.88409 15364 ft 362 kts 319°
2026-05-07 01:53 49.90069 9.85941 14818 ft 359 kts 319°
2026-05-07 01:54 49.91997 9.83483 14287 ft 357 kts 319°
2026-05-07 01:54 49.93911 9.81037 13765 ft 354 kts 319°
2026-05-07 01:54 49.95801 9.78620 13221 ft 351 kts 319°
2026-05-07 01:54 49.97700 9.76190 12654 ft 347 kts 319°
2026-05-07 01:55 49.99557 9.73810 12131 ft 344 kts 319°
2026-05-07 01:55 50.01394 9.71453 11601 ft 341 kts 319°
2026-05-07 01:55 50.03213 9.69118 11076 ft 338 kts 319°
2026-05-07 01:55 50.05014 9.66804 10555 ft 335 kts 319°
2026-05-07 01:56 50.06804 9.64501 10079 ft 331 kts 319°
2026-05-07 01:56 50.08541 9.62267 9931 ft 317 kts 319°
2026-05-07 01:56 50.10237 9.60081 9529 ft 312 kts 319°
2026-05-07 01:56 50.11857 9.57992 9334 ft 292 kts 319°
2026-05-07 01:57 50.13385 9.56022 8954 ft 281 kts 319°
2026-05-07 01:57 50.14881 9.54086 8495 ft 279 kts 318°
2026-05-07 01:57 50.16366 9.52162 8106 ft 276 kts 318°
2026-05-07 01:57 50.17840 9.50252 7708 ft 274 kts 318°
2026-05-07 01:58 50.19303 9.48354 7315 ft 272 kts 318°
2026-05-07 01:58 50.20757 9.46469 6936 ft 270 kts 318°
2026-05-07 01:58 50.22197 9.44600 6558 ft 269 kts 318°
2026-05-07 01:58 50.23559 9.42627 6155 ft 265 kts 305°
2026-05-07 01:59 50.24317 9.40067 5723 ft 261 kts 280°
2026-05-07 01:59 50.24269 9.37266 5286 ft 259 kts 255°
2026-05-07 01:59 50.23666 9.34630 4978 ft 256 kts 250°
2026-05-07 01:59 50.23049 9.32017 4888 ft 258 kts 250°
2026-05-07 02:00 50.22432 9.29362 4883 ft 262 kts 250°
2026-05-07 02:00 50.21820 9.26713 4873 ft 259 kts 250°
2026-05-07 02:00 50.21200 9.24029 4878 ft 259 kts 250°
2026-05-07 02:00 50.20596 9.21414 4869 ft 258 kts 250°
2026-05-07 02:01 50.20012 9.18886 4874 ft 237 kts 250°
2026-05-07 02:01 50.19476 9.16569 4884 ft 225 kts 251°
2026-05-07 02:01 50.18990 9.14206 4875 ft 228 kts 253°
2026-05-07 02:01 50.18494 9.11861 4887 ft 229 kts 251°
2026-05-07 02:02 50.17956 9.09526 4870 ft 228 kts 250°
2026-05-07 02:02 50.17585 9.07965 4882 ft 227 kts 250°
2026-05-07 02:02 50.17037 9.05659 4873 ft 224 kts 250°
2026-05-07 02:02 50.16512 9.03452 4874 ft 211 kts 250°
2026-05-07 02:03 50.16015 9.01360 4885 ft 207 kts 251°
2026-05-07 02:03 50.15512 8.99241 4887 ft 207 kts 250°
2026-05-07 02:03 50.15013 8.97143 4883 ft 207 kts 251°
2026-05-07 02:03 50.14512 8.95035 4885 ft 208 kts 251°
2026-05-07 02:04 50.14014 8.92941 4888 ft 205 kts 251°
2026-05-07 02:04 50.13536 8.90936 4888 ft 189 kts 251°
2026-05-07 02:04 50.13100 8.89108 4907 ft 168 kts 251°
2026-05-07 02:04 50.12728 8.87548 4882 ft 142 kts 251°
2026-05-07 02:05 50.12384 8.86097 4912 ft 138 kts 251°
2026-05-07 02:05 50.12071 8.84782 4823 ft 126 kts 252°
2026-05-07 02:05 50.11741 8.83379 4711 ft 146 kts 252°
2026-05-07 02:05 50.11396 8.81942 4504 ft 139 kts 252°
2026-05-07 02:06 50.11060 8.80529 4311 ft 139 kts 252°
2026-05-07 02:06 50.10725 8.79123 4116 ft 140 kts 252°
2026-05-07 02:06 50.10389 8.77715 3924 ft 139 kts 253°
2026-05-07 02:06 50.10051 8.76291 3721 ft 139 kts 252°
2026-05-07 02:07 50.09718 8.74898 3525 ft 137 kts 252°
2026-05-07 02:07 50.09052 8.72103 3134 ft 138 kts 253°
2026-05-07 02:07 50.08721 8.70714 2935 ft 136 kts 253°
2026-05-07 02:08 50.08389 8.69320 2735 ft 137 kts 253°
2026-05-07 02:08 50.08066 8.67973 2545 ft 129 kts 253°
2026-05-07 02:08 50.07755 8.66664 2354 ft 129 kts 253°
2026-05-07 02:08 50.07446 8.65366 2162 ft 128 kts 255°
2026-05-07 02:09 50.07137 8.64071 1970 ft 126 kts 254°
2026-05-07 02:09 50.06843 8.62847 1796 ft 117 kts 254°
2026-05-07 02:09 50.06559 8.61647 1589 ft 118 kts 254°
2026-05-07 02:09 50.06268 8.60428 1448 ft 122 kts 253°
2026-05-07 02:10 50.05972 8.59190 1255 ft 121 kts 252°
2026-05-07 02:10 50.05679 8.57962 1070 ft 122 kts 252°
2026-05-07 02:10 50.05385 8.56730 900 ft 122 kts 252°
2026-05-07 02:10 50.05096 8.55519 726 ft 120 kts 252°
2026-05-07 02:11 50.04811 8.54288 567 ft 121 kts 252°
2026-05-07 02:11 50.04508 8.53076 394 ft 120 kts 251°
2026-05-07 02:11 50.04228 8.51885 337 ft 109 kts 253°
2026-05-07 02:11 50.04099 8.51352 329 ft 30 kts 248°
2026-05-07 02:12 50.04003 8.51060 328 ft 30 kts 225°
2026-05-07 02:12 50.03865 8.50865 323 ft 17 kts 216°
2026-05-07 02:12 50.03857 8.50856 326 ft 0 kts 216°
2026-05-07 02:13 50.03854 8.50853 326 ft 2 kts 214°
2026-05-07 02:13 50.03832 8.50838 328 ft 4 kts 197°
2026-05-07 02:14 50.03807 8.50843 330 ft 3 kts 155°
2026-05-07 02:14 50.03789 8.50875 331 ft 5 kts 113°
2026-05-07 02:14 50.03796 8.50974 330 ft 13 kts 71°
2026-05-07 02:14 50.03831 8.51134 333 ft 18 kts 71°
2026-05-07 02:15 50.03876 8.51319 334 ft 18 kts 68°
2026-05-07 02:15 50.03926 8.51516 333 ft 22 kts 69°
2026-05-07 02:15 50.03979 8.51751 334 ft 24 kts 66°
2026-05-07 02:15 50.04040 8.52007 335 ft 26 kts 70°
2026-05-07 02:16 50.04104 8.52264 347 ft 22 kts 68°
2026-05-07 02:16 50.04155 8.52487 354 ft 22 kts 70°
2026-05-07 02:16 50.04205 8.52691 352 ft 20 kts 68°
2026-05-07 02:16 50.04252 8.52879 358 ft 18 kts 69°
2026-05-07 02:17 50.04298 8.53073 363 ft 21 kts 70°
2026-05-07 02:17 50.04342 8.53269 366 ft 17 kts 70°
2026-05-07 02:17 50.04381 8.53433 372 ft 16 kts 70°
2026-05-07 02:17 50.04404 8.53603 375 ft 18 kts 84°
2026-05-07 02:18 50.04416 8.53819 375 ft 22 kts 84°
2026-05-07 02:18 50.04430 8.54017 375 ft 19 kts 83°
2026-05-07 02:18 50.04446 8.54239 375 ft 22 kts 84°
2026-05-07 02:18 50.04447 8.54504 367 ft 28 kts 102°
2026-05-07 02:19 50.04417 8.54623 366 ft 3 kts 120°
2026-05-07 02:19 50.04383 8.54697 361 ft 13 kts 135°
2026-05-07 02:19 50.04283 8.54791 362 ft 21 kts 158°
2026-05-07 02:19 50.04177 8.54848 356 ft 6 kts 161°
2026-05-07 02:20 50.04176 8.54848 356 ft 0 kts 161°
2026-05-07 02:20 50.04168 8.54852 355 ft 4 kts 161°
2026-05-07 02:20 50.04119 8.54878 355 ft 10 kts 160°
2026-05-07 02:21 50.04045 8.54924 355 ft 12 kts 150°
2026-05-07 02:21 50.04028 8.55044 358 ft 13 kts 77°
2026-05-07 02:21 50.04059 8.55194 354 ft 16 kts 70°
2026-05-07 02:21 50.04104 8.55378 358 ft 20 kts 68°
2026-05-07 02:22 50.04157 8.55599 357 ft 23 kts 70°
2026-05-07 02:22 50.04215 8.55846 356 ft 25 kts 69°
2026-05-07 02:22 50.04281 8.56106 357 ft 27 kts 68°
2026-05-07 02:22 50.04337 8.56340 358 ft 17 kts 70°
2026-05-07 02:23 50.04380 8.56531 361 ft 19 kts 69°
2026-05-07 02:23 50.04427 8.56719 358 ft 18 kts 69°
2026-05-07 02:23 50.04499 8.56871 359 ft 19 kts 22°
2026-05-07 02:23 50.04534 8.56881 359 ft 3 kts
2026-05-07 02:24 50.04567 8.56891 358 ft 8 kts 12°
2026-05-07 02:24 50.04639 8.56924 357 ft 12 kts 20°
2026-05-07 02:24 50.04658 8.56948 363 ft 2 kts 65°
2026-05-07 02:24 50.04656 8.56970 362 ft 4 kts 101°
2026-05-07 02:25 50.04653 8.57033 356 ft 8 kts 92°
2026-05-07 02:25 50.04653 8.57043 356 ft 0 kts 92°
2026-05-07 02:25 50.04653 8.57053 356 ft 3 kts 91°
2026-05-07 02:26 50.04653 8.57069 356 ft 0 kts 91°